Regional Weather Roundup
Issued by NWS Cleveland, OH

Home | Current Version | Previous Version | Graphics & Text | Print | Product List | Glossary On
Versions: 1 2 3 4 5 6 7 8 9 10 11 12 13 14 15 16 17 18 19 20 21 22 23 24 25 26 27 28 29 30 31 32 33 34 35 36 37 38 39 40 41 42 43 44 45 46 47 48 49 50
000
ASUS41 KCLE 311612
RWRCLE
OHIO REGIONAL WEATHER ROUNDUP
NATIONAL WEATHER SERVICE WILMINGTON, OH
1200 PM EDT TUE MAY 31 2016

NOTE: "FAIR" INDICATES FEW OR NO CLOUDS BELOW 12,000 FEET WITH NO
SIGNIFICANT WEATHER AND/OR OBSTRUCTIONS TO VISIBILITY.

OHZ001>008-015>018-024>027-034-035-043-044-311700-
   NORTHWEST OHIO

CITY           SKY/WX    TMP DP  RH WIND       PRES   REMARKS
DEFIANCE       FAIR      82  49  31 NE10      30.04S
FINDLAY        FAIR      82  53  36 N7        30.02S
TOLEDO EXPRESS FAIR      79  50  36 E10       30.03F
TOLEDO EXEC    FAIR      79  56  45 NE7       30.05S
LIMA           FAIR      80  52  37 NE8       30.03S
$$

OHZ009>014-019>023-028>033-038-089-311700-
   NORTHEAST OHIO

CITY           SKY/WX    TMP DP  RH WIND       PRES   REMARKS
CLE-HOPKINS    PTSUNNY   79  60  52 N9        30.05R
CLE-LAKEFRONT  FAIR      73  64  73 NE6       30.03R HAZE
CUY CO. ARPT   PTSUNNY   79  63  57 N7        30.04R
LORAIN-ELYRIA  FAIR      78  57  48 NE9       30.04R
ASHTABULA      FAIR      77  59  53 NW8       30.05R
AKRON-CANTON   PTSUNNY   82  59  45 CALM      30.03R
WOOSTER        FAIR      82  59  45 NE5       30.04R
MANSFIELD      FAIR      81  58  45 N3        30.04S
YOUNGSTOWN     CLOUDY    79  57  46 VRB3      30.04R
$$

OHZ042-051>053-060>062-070>072-077>081-311700-
  SOUTHWEST OHIO

CITY           SKY/WX    TMP DP  RH WIND       PRES   REMARKS
CINC-COVINGTON NOT AVBL
CINC-LUNKEN    FAIR      82  63  52 SW3       30.01S
HAMILTON       FAIR      85  60  42 CALM      30.02S
DAYTON         PTSUNNY   83  57  41 E3        30.03S
WRIGHT-PAT AFB MOSUNNY   84  55  37 S2        30.01S
DAYTON GENERAL FAIR      83  58  42 CALM      30.01S
WILMINGTON     FAIR      83  60  45 S3        30.02S
$$

OHZ036-037-039>041-045>050-054>059-063>069-073>076-082>088-311700-
  CENTRAL AND SOUTHEAST OHIO

CITY           SKY/WX    TMP DP  RH WIND       PRES   REMARKS
COLUMBUS       FAIR      83  57  41 SW5       30.01S
OSU AIRPORT    FAIR      85  58  39 CALM      30.01S
BOLTON FIELD   SUNNY    N/A N/A N/A CALM      30.02S
RICKENBACK AFB FAIR      81  63  53 S5        30.01S
NEWARK         FAIR      86  58  38 SW8       30.01S
MARION         FAIR      82  54  37 MISG      30.03S
LANCASTER      FAIR      84  61  45 SW7       30.02S
ZANESVILLE     FAIR      85  60  42 VRB6      30.02S
NEW PHILLY     FAIR      84  58  40 CALM      30.02S
$$



USA.gov is the U.S. government's official web portal to all federal, state and local government web resources and services.